Location: Branche des Alpilles
(43.6087°N, 4.6976°E)
Time: 09:15:30
(UTC+00:00)

Cosmos 1812 - Pass Details

Date: 30 November 2020
Orbit: 517 x 520 km, 82.5° (Epoch: 25 January)

Event Time Altitude Azimuth Distance (km) Brightness Sun altitude
Rises 17:44:08 0° 171° (S) 2,624 6.3 -17.3°
Reaches altitude 10° 17:46:19 10° 164° (SSE) 1,742 5.3 -17.7°
Enters shadow 17:49:31 40° 111° (ESE) 776 3.1 -18.2°
